Overview Statistics Trail Chart Weather Telemetry Raw packets
 

This is the latest recevied weather packets stored in our database for station/object KD8DNS. If no packets are shown the sender has not sent any weather packets the latest 10 day(s).

<< 69 70 71 72 73 74 75 >>
Time Temp. Humidity Pressure Rain* Wind** Luminosity Snow
1788181351 22.78° C 93% 1022.7 hPa 0 mm - 82 W/m² -
1788181049 22.78° C 93% 1022.7 hPa 0 mm - 60 W/m² -
1788180747 22.78° C 93% 1022.5 hPa 0 mm - 54 W/m² -
1788180440 22.78° C 94% 1022.3 hPa 0 mm - 56 W/m² -
1788180144 22.78° C 94% 1022.4 hPa 0 mm - 65 W/m² -
1788179836 22.78° C 94% 1022.4 hPa 0 mm - 64 W/m² -
1788179535 22.22° C 95% 1022.5 hPa 0 mm - 56 W/m² -
1788179230 22.22° C 95% 1022.4 hPa 0 mm - 52 W/m² -
1788178926 22.22° C 96% 1022.6 hPa 0 mm - 48 W/m² -
1788178637 22.22° C 96% 1022.3 hPa 0 mm - 39 W/m² -
1788178322 21.67° C 96% 1022.1 hPa 0 mm - 27 W/m² -
1788178017 21.67° C 96% 1022.1 hPa 0 mm - 20 W/m² -
1788177712 21.67° C 96% 1022.3 hPa 0 mm - 17 W/m² -
1788177408 21.67° C 97% 1022.3 hPa 0 mm - 14 W/m² -
1788177103 21.67° C 97% 1022.3 hPa 0 mm - 10 W/m² -
1788176802 21.67° C 97% 1022.1 hPa 0 mm - 7 W/m² -
1788176496 21.67° C 97% 1022.1 hPa 0 mm - 5 W/m² -
1788176197 21.67° C 97% 1021.9 hPa 0 mm - 5 W/m² -
1788175892 21.67° C 97% 1021.9 hPa 0 mm - 5 W/m² -
1788175591 21.67° C 97% 1021.8 hPa 0 mm - 3 W/m² -
1788175286 21.67° C 97% 1021.8 hPa 0 mm - 0 W/m² -
1788174982 21.67° C 98% 1022.1 hPa 0 mm - 0 W/m² -
1788174678 21.67° C 98% 1021.9 hPa 0 mm - 0 W/m² -
1788174373 21.67° C 98% 1021.8 hPa 0 mm - 0 W/m² -
1788174063 21.67° C 98% 1021.7 hPa 0 mm - 0 W/m² -

* Rain latest hour (hover to see other rain measurements)
** Current wind speed in m/s (hover to see current wind gust speed)